Retour au catalogue

STARLINK-36382

ActifCommunicationsSSO
NORAD 67807·PAYLOAD·🇺🇸 United States

Lancé Feb 15, 2026 depuis Vandenberg Space Force Base

Loading…

Prochains Passages (prochaines 24 heures)

TLE

FraisSource: CelesTrak SupGP

Époque: Sep 14, 2026, 22:34 UTC

1 67807C 26032L   26257.94076389  .00075636  00000+0  23481-2 0  2572
2 67807  97.2855  84.4072 0001630  93.1969 213.5553 15.33398601    12

Suivez STARLINK-36382 en temps réel avec AllMySat

Download on the App Store